| time (UTC) | temp F | wind direction | speed MPH | gust MPH | rain 1hr in | rain 24hr in | rain mn in | humidity % | barometer mb |
| 20260504194504 | 69 | 199 | 3.0 | 14.0 | 0.00 | 0.00 | 0.00 | 45 | 1009.1 |
| 20260504194004 | 69 | 183 | 4.0 | 14.0 | 0.00 | 0.00 | 0.00 | 42 | 1009.2 |
| 20260504193504 | 69 | 180 | 4.0 | 10.0 | 0.00 | 0.00 | 0.00 | 46 | 1009.2 |
| 20260504193004 | 69 | 177 | 6.0 | 17.0 | 0.00 | 0.00 | 0.00 | 43 | 1009.2 |
| 20260504192504 | 70 | 191 | 6.0 | 17.0 | 0.00 | 0.00 | 0.00 | 43 | 1009.2 |
| 20260504192025 | 70 | 212 | 4.0 | 13.0 | 0.00 | 0.00 | 0.00 | 45 | 1009.2 |
| 20260504191504 | 70 | 202 | 4.0 | 16.0 | 0.00 | 0.00 | 0.00 | 43 | 1009.3 |
| 20260504191025 | 70 | 203 | 6.0 | 19.0 | 0.00 | 0.00 | 0.00 | 45 | 1009.3 |
| 20260504190526 | 71 | 211 | 4.0 | 19.0 | 0.00 | 0.00 | 0.00 | 43 | 1009.4 |
| 20260504190004 | 72 | 226 | 4.0 | 12.0 | 0.00 | 0.00 | 0.00 | 43 | 1009.4 |
| 20260504185504 | 71 | 225 | 4.0 | 12.0 | 0.00 | 0.00 | 0.00 | 40 | 1009.6 |
| 20260504185004 | 71 | 229 | 4.0 | 12.0 | 0.00 | 0.00 | 0.00 | 43 | 1009.5 |
| 20260504184525 | 71 | 220 | 4.0 | 14.0 | 0.00 | 0.00 | 0.00 | 39 | 1009.6 |
| 20260504184004 | 71 | 205 | 7.0 | 14.0 | 0.00 | 0.00 | 0.00 | 40 | 1009.6 |
| 20260504183504 | 71 | 194 | 7.0 | 19.0 | 0.00 | 0.00 | 0.00 | 41 | 1009.6 |
| 20260504183025 | 71 | 181 | 7.0 | 19.0 | 0.00 | 0.00 | 0.00 | 43 | 1009.5 |
| 20260504182504 | 71 | 184 | 7.0 | 19.0 | 0.00 | 0.00 | 0.00 | 42 | 1009.6 |
| 20260504182004 | 71 | 207 | 6.0 | 19.0 | 0.00 | 0.00 | 0.00 | 42 | 1009.7 |
| 20260504181504 | 71 | 218 | 6.0 | 19.0 | 0.00 | 0.00 | 0.00 | 41 | 1009.6 |
| 20260504181004 | 71 | 196 | 6.0 | 14.0 | 0.00 | 0.00 | 0.00 | 44 | 1009.7 |
| 20260504180505 | 70 | 179 | 6.0 | 14.0 | 0.00 | 0.00 | 0.00 | 45 | 1009.6 |
| 20260504180025 | 70 | 199 | 6.0 | 17.0 | 0.00 | 0.00 | 0.00 | 42 | 1009.8 |
| 20260504175504 | 70 | 230 | 4.0 | 17.0 | 0.00 | 0.00 | 0.00 | 43 | 1009.9 |
| 20260504175004 | 70 | 223 | 4.0 | 12.0 | 0.00 | 0.00 | 0.00 | 41 | 1010.1 |
| 20260504174504 | 70 | 207 | 6.0 | 13.0 | 0.00 | 0.00 | 0.00 | 46 | 1009.9 |
| 20260504174025 | 70 | 197 | 4.0 | 13.0 | 0.00 | 0.00 | 0.00 | 45 | 1010.0 |
| 20260504173504 | 69 | 194 | 4.0 | 12.0 | 0.00 | 0.00 | 0.00 | 47 | 1010.1 |
| 20260504173004 | 69 | 181 | 6.0 | 16.0 | 0.00 | 0.00 | 0.00 | 41 | 1010.0 |
| 20260504172525 | 69 | 186 | 6.0 | 16.0 | 0.00 | 0.00 | 0.00 | 41 | 1010.3 |
| 20260504172004 | 69 | 203 | 4.0 | 14.0 | 0.00 | 0.00 | 0.00 | 45 | 1010.3 |
| 20260504171504 | 68 | 198 | 7.0 | 16.0 | 0.00 | 0.00 | 0.00 | 45 | 1010.4 |
| 20260504171004 | 68 | 194 | 9.0 | 35.0 | 0.00 | 0.00 | 0.00 | 44 | 1010.6 |
| 20260504170504 | 68 | 189 | 7.0 | 35.0 | 0.00 | 0.00 | 0.00 | 44 | 1010.6 |
| 20260504151004 | 63 | 199 | 6.0 | 12.0 | 0.00 | 0.00 | 0.00 | 49 | 1012.0 |
| 20260504150504 | 62 | 194 | 6.0 | 13.0 | 0.00 | 0.00 | 0.00 | 48 | 1012.1 |
| 20260504141004 | 57 | 172 | 6.0 | 13.0 | 0.00 | 0.00 | 0.00 | 50 | 1012.5 |
| 20260504140504 | 57 | 186 | 4.0 | 12.0 | 0.00 | 0.00 | 0.00 | 50 | 1012.5 |
| 20260504130504 | 52 | 181 | 4.0 | 17.0 | 0.00 | 0.00 | 0.00 | 56 | 1012.9 |
| 20260504110503 | 44 | 169 | 3.0 | 7.0 | 0.00 | 0.00 | 0.00 | 68 | 1013.2 |
| 20260504100503 | 44 | 171 | 3.0 | 9.0 | 0.00 | 0.00 | 0.00 | 66 | 1012.9 |
| 20260504082003 | 44 | 182 | 3.0 | 6.0 | 0.00 | 0.00 | 0.00 | 66 | 1013.3 |
| 20260504081503 | 44 | 171 | 1.0 | 6.0 | 0.00 | 0.00 | 0.00 | 65 | 1013.4 |
| 20260504081003 | 44 | 170 | 1.0 | 7.0 | 0.00 | 0.00 | 0.00 | 66 | 1013.3 |
| 20260504080503 | 44 | 172 | 1.0 | 7.0 | 0.00 | 0.00 | 0.00 | 66 | 1013.3 |
| 20260504050505 | 46 | 219 | 1.0 | 4.0 | 0.00 | 0.00 | 0.00 | 62 | 1012.9 |
| 20260504050005 | 46 | 221 | 1.0 | 4.0 | 0.00 | 0.00 | 0.00 | 61 | 1013.0 |
| 20260504045505 | 46 | 225 | 1.0 | 3.0 | 0.00 | 0.00 | 0.00 | 61 | 1013.0 |
| 20260504045005 | 46 | 225 | 0.0 | 3.0 | 0.00 | 0.00 | 0.00 | 60 | 1013.0 |
| 20260504044505 | 46 | 202 | 0.0 | 1.0 | 0.00 | 0.00 | 0.00 | 59 | 1013.0 |
| 20260504044005 | 46 | 0 | 0.0 | 0.0 | 0.00 | 0.00 | 0.00 | 60 | 1012.9 |
| 20260504043505 | 46 | 202 | 0.0 | 3.0 | 0.00 | 0.00 | 0.00 | 60 | 1012.9 |
| 20260504043005 | 46 | 202 | 0.0 | 3.0 | 0.00 | 0.00 | 0.00 | 61 | 1013.0 |
| 20260504042526 | 46 | 0 | 0.0 | 0.0 | 0.00 | 0.00 | 0.00 | 63 | 1012.9 |
| 20260504042005 | 46 | 0 | 0.0 | 0.0 | 0.00 | 0.00 | 0.00 | 63 | 1012.9 |
| 20260504041505 | 46 | 0 | 0.0 | 0.0 | 0.00 | 0.00 | 0.00 | 60 | 1012.8 |
| 20260504041005 | 46 | 0 | 0.0 | 0.0 | 0.00 | 0.00 | 0.00 | 64 | 1012.8 |
| 20260504040505 | 46 | 0 | 0.0 | 0.0 | 0.00 | 0.00 | 0.00 | 61 | 1012.8 |
| 20260504040005 | 46 | 0 | 0.0 | 0.0 | 0.00 | 0.00 | 0.00 | 60 | 1012.8 |
| 20260504035505 | 46 | 0 | 0.0 | 0.0 | 0.00 | 0.00 | 0.00 | 59 | 1012.8 |
| 20260504035005 | 46 | 0 | 0.0 | 0.0 | 0.00 | 0.00 | 0.00 | 60 | 1012.8 |
| 20260504034505 | 46 | 0 | 0.0 | 0.0 | 0.00 | 0.00 | 0.00 | 61 | 1012.8 |
| 20260504034005 | 46 | 0 | 0.0 | 0.0 | 0.00 | 0.00 | 0.00 | 59 | 1012.8 |
| 20260504033505 | 46 | 0 | 0.0 | 0.0 | 0.00 | 0.00 | 0.00 | 60 | 1012.7 |
| 20260504033026 | 46 | 0 | 0.0 | 0.0 | 0.00 | 0.00 | 0.00 | 61 | 1012.7 |
| 20260504032504 | 46 | 0 | 0.0 | 0.0 | 0.00 | 0.00 | 0.00 | 60 | 1012.8 |
| 20260504032005 | 46 | 0 | 0.0 | 0.0 | 0.00 | 0.00 | 0.00 | 59 | 1012.7 |
| 20260504031525 | 46 | 0 | 0.0 | 0.0 | 0.00 | 0.00 | 0.00 | 58 | 1012.7 |
| 20260504031005 | 47 | 0 | 0.0 | 0.0 | 0.00 | 0.00 | 0.00 | 58 | 1012.7 |
| 20260504030505 | 47 | 0 | 0.0 | 0.0 | 0.00 | 0.00 | 0.00 | 61 | 1012.7 |
| 20260504030005 | 47 | 0 | 0.0 | 0.0 | 0.00 | 0.00 | 0.00 | 61 | 1012.8 |
| 20260504025505 | 47 | 0 | 0.0 | 0.0 | 0.00 | 0.00 | 0.00 | 58 | 1012.8 |
| 20260504025005 | 47 | 0 | 0.0 | 0.0 | 0.00 | 0.00 | 0.00 | 58 | 1012.8 |
| 20260504024504 | 48 | 0 | 0.0 | 0.0 | 0.00 | 0.00 | 0.00 | 59 | 1012.7 |
| 20260504024005 | 48 | 0 | 0.0 | 0.0 | 0.00 | 0.00 | 0.00 | 58 | 1012.8 |
| 20260504023505 | 48 | 0 | 0.0 | 0.0 | 0.00 | 0.00 | 0.00 | 58 | 1012.8 |
| 20260504023005 | 48 | 0 | 0.0 | 0.0 | 0.00 | 0.00 | 0.00 | 57 | 1012.7 |
| 20260504022505 | 48 | 0 | 0.0 | 0.0 | 0.00 | 0.00 | 0.00 | 55 | 1012.7 |
| 20260504022026 | 48 | 0 | 0.0 | 0.0 | 0.00 | 0.00 | 0.00 | 54 | 1012.7 |
| 20260504021505 | 48 | 0 | 0.0 | 0.0 | 0.00 | 0.00 | 0.00 | 55 | 1012.7 |
| 20260504021026 | 49 | 0 | 0.0 | 0.0 | 0.00 | 0.00 | 0.00 | 55 | 1012.7 |
| 20260504020504 | 49 | 0 | 0.0 | 0.0 | 0.00 | 0.00 | 0.00 | 56 | 1012.8 |
| 20260504020005 | 49 | 0 | 0.0 | 0.0 | 0.00 | 0.00 | 0.00 | 56 | 1012.8 |
| 20260504015525 | 49 | 0 | 0.0 | 0.0 | 0.00 | 0.00 | 0.00 | 54 | 1012.7 |
| 20260504015004 | 49 | 279 | 0.0 | 1.0 | 0.00 | 0.00 | 0.00 | 55 | 1012.7 |
| 20260504014525 | 49 | 279 | 0.0 | 1.0 | 0.00 | 0.00 | 0.00 | 54 | 1012.7 |
| 20260504014026 | 49 | 0 | 0.0 | 0.0 | 0.00 | 0.00 | 0.00 | 54 | 1012.5 |
| 20260504013525 | 49 | 279 | 0.0 | 1.0 | 0.00 | 0.00 | 0.00 | 54 | 1012.5 |
| 20260504013004 | 50 | 279 | 0.0 | 1.0 | 0.00 | 0.00 | 0.00 | 54 | 1012.5 |
| 20260504012505 | 50 | 0 | 0.0 | 0.0 | 0.00 | 0.00 | 0.00 | 52 | 1012.4 |
| 20260504012005 | 50 | 279 | 0.0 | 1.0 | 0.00 | 0.00 | 0.00 | 53 | 1012.4 |
| 20260504011504 | 50 | 279 | 0.0 | 1.0 | 0.00 | 0.00 | 0.00 | 53 | 1012.3 |
| 20260504011005 | 50 | 0 | 0.0 | 0.0 | 0.00 | 0.00 | 0.00 | 53 | 1012.3 |
| 20260504010527 | 51 | 0 | 0.0 | 0.0 | 0.00 | 0.00 | 0.00 | 52 | 1012.3 |
| 20260504010004 | 51 | 0 | 0.0 | 0.0 | 0.00 | 0.00 | 0.00 | 52 | 1012.1 |
| 20260504005504 | 51 | 0 | 0.0 | 0.0 | 0.00 | 0.00 | 0.00 | 52 | 1012.0 |
| 20260504005004 | 52 | 0 | 0.0 | 0.0 | 0.00 | 0.00 | 0.00 | 52 | 1012.1 |
| 20260504004504 | 52 | 279 | 0.0 | 1.0 | 0.00 | 0.00 | 0.00 | 51 | 1012.1 |
| 20260504004005 | 52 | 279 | 0.0 | 1.0 | 0.00 | 0.00 | 0.00 | 49 | 1012.0 |
| 20260504003504 | 52 | 0 | 0.0 | 0.0 | 0.00 | 0.00 | 0.00 | 49 | 1012.0 |
| 20260504003004 | 52 | 279 | 0.0 | 1.0 | 0.00 | 0.00 | 0.00 | 49 | 1012.0 |
| 20260504002504 | 53 | 279 | 0.0 | 3.0 | 0.00 | 0.00 | 0.00 | 50 | 1011.9 |
| 20260504002025 | 53 | 279 | 0.0 | 3.0 | 0.00 | 0.00 | 0.00 | 49 | 1011.9 |
| 20260504001504 | 53 | 279 | 0.0 | 1.0 | 0.00 | 0.00 | 0.00 | 48 | 1011.8 |
| 20260504001005 | 53 | 279 | 0.0 | 1.0 | 0.00 | 0.00 | 0.00 | 50 | 1011.7 |
| 20260504000504 | 54 | 280 | 0.0 | 4.0 | 0.00 | 0.00 | 0.00 | 50 | 1011.6 |
| 20260504000004 | 54 | 287 | 1.0 | 4.0 | 0.00 | 0.00 | 0.00 | 50 | 1011.7 |
| 20260503235504 | 54 | 291 | 0.0 | 4.0 | 0.00 | 0.00 | 0.00 | 48 | 1011.7 |
| 20260503235004 | 54 | 0 | 0.0 | 0.0 | 0.00 | 0.00 | 0.00 | 52 | 1011.5 |
| 20260503234504 | 54 | 0 | 0.0 | 0.0 | 0.00 | 0.00 | 0.00 | 52 | 1011.5 |
| 20260503234052 | 54 | 0 | 0.0 | 0.0 | 0.00 | 0.00 | 0.00 | 53 | 1011.5 |
| 20260503233504 | 54 | 270 | 0.0 | 1.0 | 0.00 | 0.00 | 0.00 | 51 | 1011.5 |
| 20260503233004 | 54 | 268 | 0.0 | 3.0 | 0.00 | 0.00 | 0.00 | 54 | 1011.5 |
| 20260503232504 | 55 | 266 | 0.0 | 3.0 | 0.00 | 0.00 | 0.00 | 51 | 1011.5 |
| 20260503232004 | 55 | 264 | 0.0 | 3.0 | 0.00 | 0.00 | 0.00 | 51 | 1011.5 |
| 20260503231505 | 55 | 269 | 0.0 | 3.0 | 0.00 | 0.00 | 0.00 | 48 | 1011.5 |
| 20260503231004 | 55 | 268 | 1.0 | 3.0 | 0.00 | 0.00 | 0.00 | 51 | 1011.5 |
| 20260503230526 | 55 | 286 | 1.0 | 4.0 | 0.00 | 0.00 | 0.00 | 46 | 1011.4 |
| 20260503230004 | 55 | 290 | 1.0 | 4.0 | 0.00 | 0.00 | 0.00 | 48 | 1011.5 |
| 20260503225504 | 55 | 277 | 3.0 | 7.0 | 0.00 | 0.00 | 0.00 | 50 | 1011.4 |
| 20260503225004 | 56 | 285 | 3.0 | 9.0 | 0.00 | 0.00 | 0.00 | 50 | 1011.5 |
| 20260503224525 | 56 | 298 | 3.0 | 9.0 | 0.00 | 0.00 | 0.00 | 50 | 1011.4 |
| 20260503224004 | 56 | 305 | 1.0 | 9.0 | 0.00 | 0.00 | 0.00 | 49 | 1011.5 |
| 20260503223504 | 56 | 296 | 3.0 | 7.0 | 0.00 | 0.00 | 0.00 | 46 | 1011.4 |
| 20260503223004 | 56 | 279 | 3.0 | 10.0 | 0.00 | 0.00 | 0.00 | 46 | 1011.5 |
| 20260503222504 | 56 | 268 | 3.0 | 10.0 | 0.00 | 0.00 | 0.00 | 46 | 1011.4 |
| 20260503222026 | 56 | 257 | 3.0 | 9.0 | 0.00 | 0.00 | 0.00 | 44 | 1011.5 |
| 20260503221504 | 56 | 250 | 3.0 | 9.0 | 0.00 | 0.00 | 0.00 | 45 | 1011.4 |
| 20260503221004 | 56 | 277 | 4.0 | 12.0 | 0.00 | 0.00 | 0.00 | 43 | 1011.5 |
| 20260503220504 | 56 | 280 | 4.0 | 12.0 | 0.00 | 0.00 | 0.00 | 43 | 1011.4 |
| 20260503220004 | 56 | 285 | 3.0 | 10.0 | 0.00 | 0.00 | 0.00 | 43 | 1011.5 |
| 20260503215525 | 56 | 294 | 3.0 | 10.0 | 0.00 | 0.00 | 0.00 | 47 | 1011.6 |
| 20260503215004 | 56 | 278 | 3.0 | 7.0 | 0.00 | 0.00 | 0.00 | 45 | 1011.5 |
| 20260503214504 | 57 | 262 | 3.0 | 9.0 | 0.00 | 0.00 | 0.00 | 44 | 1011.4 |
| 20260503214004 | 57 | 288 | 3.0 | 12.0 | 0.00 | 0.00 | 0.00 | 42 | 1011.4 |
| 20260503213525 | 57 | 297 | 3.0 | 17.0 | 0.00 | 0.00 | 0.00 | 42 | 1011.5 |
| 20260503213004 | 57 | 264 | 4.0 | 17.0 | 0.00 | 0.00 | 0.00 | 44 | 1011.4 |
| 20260503212504 | 58 | 257 | 3.0 | 13.0 | 0.00 | 0.00 | 0.00 | 41 | 1011.4 |
| 20260503212004 | 58 | 259 | 3.0 | 7.0 | 0.00 | 0.00 | 0.00 | 44 | 1011.3 |
| 20260503211504 | 58 | 235 | 1.0 | 9.0 | 0.00 | 0.00 | 0.00 | 43 | 1011.4 |
| 20260503211004 | 58 | 283 | 1.0 | 10.0 | 0.00 | 0.00 | 0.00 | 40 | 1011.4 |
| 20260503210504 | 58 | 274 | 3.0 | 10.0 | 0.00 | 0.00 | 0.00 | 40 | 1011.4 |
| 20260503210005 | 58 | 233 | 3.0 | 9.0 | 0.00 | 0.00 | 0.00 | 39 | 1011.4 |
| 20260503205504 | 58 | 272 | 3.0 | 12.0 | 0.00 | 0.00 | 0.00 | 43 | 1011.4 |
| 20260503205004 | 59 | 287 | 3.0 | 12.0 | 0.00 | 0.00 | 0.00 | 39 | 1011.4 |
| 20260503204504 | 59 | 249 | 3.0 | 10.0 | 0.00 | 0.00 | 0.00 | 39 | 1011.3 |
| 20260503204004 | 58 | 229 | 1.0 | 6.0 | 0.00 | 0.00 | 0.00 | 40 | 1011.3 |
| 20260503203525 | 58 | 264 | 3.0 | 9.0 | 0.00 | 0.00 | 0.00 | 42 | 1011.3 |
| 20260503203025 | 58 | 269 | 3.0 | 9.0 | 0.00 | 0.00 | 0.00 | 41 | 1011.4 |
| 20260503202504 | 58 | 278 | 3.0 | 7.0 | 0.00 | 0.00 | 0.00 | 38 | 1011.4 |
| 20260503202004 | 59 | 285 | 3.0 | 10.0 | 0.00 | 0.00 | 0.00 | 38 | 1011.4 |
| 20260503201504 | 59 | 287 | 3.0 | 10.0 | 0.00 | 0.00 | 0.00 | 39 | 1011.4 |
| 20260503201004 | 59 | 263 | 3.0 | 9.0 | 0.00 | 0.00 | 0.00 | 37 | 1011.4 |
| 20260503200504 | 59 | 275 | 3.0 | 9.0 | 0.00 | 0.00 | 0.00 | 40 | 1011.5 |
| 20260503200004 | 60 | 318 | 3.0 | 9.0 | 0.00 | 0.00 | 0.00 | 36 | 1011.5 |
| 20260503195504 | 60 | 273 | 3.0 | 7.0 | 0.00 | 0.00 | 0.00 | 35 | 1011.5 |
| 20260503195004 | 60 | 254 | 1.0 | 6.0 | 0.00 | 0.00 | 0.00 | 41 | 1011.6 |